Precipitable_Water
1.91 1.85 1.83 1.97 1.96 1.89 1.83 1.78 1.71 1.67 1.61 1.55 1.46 1.37 1.28 1.32 1.34 1.36 1.40 1.37 1.41 1.26 1.20 1.13 1.10 1.03 1.00 0.97 0.92 0.95 1.02 1.15 1.18
1.89 1.89 1.85 1.83 1.88 1.88 1.84 1.79 1.76 1.69 1.64 1.60 1.55 1.49 1.49 1.46 1.40 1.37 1.47 1.52 1.53 1.49 1.40 1.28 1.13 1.14 1.06 1.03 1.02 1.00 1.00 1.06 1.07
1.85 1.83 1.77 1.85 1.87 1.84 1.81 1.80 1.74 1.72 1.67 1.61 1.57 1.55 1.55 1.59 1.62 1.64 1.63 1.65 1.68 1.66 1.54 1.37 1.31 1.24 1.25 1.20 1.11 1.02 0.98 0.94 0.95
1.70 1.74 1.76 1.81 1.84 1.84 1.83 1.79 1.76 1.70 1.65 1.60 1.56 1.53 1.51 1.53 1.54 1.58 1.66 1.74 1.74 1.69 1.63 1.59 1.52 1.43 1.37 1.32 1.31 1.23 1.17 1.06 1.03
1.65 1.70 1.74 1.72 1.73 1.78 1.75 1.72 1.66 1.61 1.54 1.49 1.47 1.48 1.49 1.48 1.47 1.45 1.46 1.56 1.66 1.69 1.71 1.72 1.70 1.64 1.58 1.54 1.47 1.43 1.39 1.34 1.26
1.65 1.67 1.69 1.70 1.73 1.69 1.67 1.65 1.61 1.54 1.47 1.44 1.42 1.40 1.39 1.36 1.35 1.36 1.37 1.45 1.49 1.53 1.55 1.59 1.62 1.63 1.66 1.65 1.61 1.55 1.51 1.49 1.45
1.55 1.65 1.70 1.71 1.65 1.62 1.62 1.60 1.59 1.55 1.52 1.48 1.47 1.43 1.45 1.46 1.48 1.51 1.55 1.59 1.61 1.58 1.55 1.57 1.61 1.63 1.65 1.67 1.68 1.68 1.64 1.57 1.55
1.41 1.45 1.48 1.51 1.49 1.45 1.48 1.46 1.44 1.44 1.41 1.38 1.36 1.40 1.43 1.47 1.57 1.64 1.70 1.70 1.69 1.65 1.64 1.63 1.64 1.63 1.61 1.62 1.59 1.56 1.53 1.49 1.49
1.27 1.28 1.29 1.33 1.36 1.40 1.41 1.37 1.35 1.31 1.28 1.25 1.23 1.25 1.31 1.35 1.45 1.57 1.66 1.70 1.69 1.64 1.60 1.59 1.54 1.50 1.48 1.46 1.41 1.38 1.35 1.35 1.37
1.20 1.22 1.27 1.27 1.29 1.33 1.33 1.34 1.34 1.34 1.32 1.30 1.29 1.28 1.27 1.27 1.29 1.33 1.40 1.46 1.54 1.56 1.53 1.50 1.46 1.37 1.30 1.26 1.24 1.22 1.21 1.20 1.18
1.09 1.11 1.14 1.18 1.25 1.30 1.33 1.34 1.33 1.32 1.31 1.31 1.33 1.35 1.37 1.35 1.31 1.32 1.32 1.31 1.28 1.28 1.29 1.32 1.38 1.39 1.38 1.38 1.36 1.35 1.36 1.37 1.34
1.04 1.08 1.12 1.15 1.18 1.31 1.33 1.29 1.32 1.32 1.29 1.28 1.27 1.30 1.34 1.34 1.33 1.32 1.36 1.37 1.38 1.37 1.37 1.37 1.37 1.37 1.35 1.30 1.28 1.29 1.31 1.31 1.33
1.09 1.08 1.10 1.14 1.27 1.26 1.29 1.27 1.27 1.22 1.22 1.19 1.20 1.18 1.19 1.19 1.18 1.23 1.24 1.27 1.28 1.29 1.30 1.31 1.28 1.20 1.15 1.08 1.02 1.02 0.97 0.92 0.86
1.03 1.08 1.00 1.08 1.13 1.15 1.16 1.12 1.15 1.12 1.05 1.02 0.98 0.94 0.89 0.86 0.92 0.91 0.88 0.88 0.91 0.93 0.97 0.94 0.88 0.84 0.78 0.72 0.67 0.65 0.65 0.64 0.61
0.91 0.93 0.95 1.03 0.98 1.06 1.12 1.10 1.02 0.97 0.90 0.81 0.70 0.61 0.49 0.42 0.40 0.40 0.43 0.44 0.43 0.43 0.45 0.47 0.48 0.50 0.53 0.56 0.56 0.55 0.53 0.52 0.53
0.85 0.86 0.88 0.90 0.89 0.84 0.81 0.82 0.90 0.77 0.68 0.53 0.40 0.34 0.32 0.31 0.29 0.28 0.28 0.25 0.23 0.20 0.19 0.22 0.32 0.37 0.41 0.45 0.49 0.51 0.51 0.51 0.50
0.82 0.83 0.80 0.78 0.74 0.70 0.66 0.63 0.61 0.58 0.54 0.42 0.34 0.25 0.24 0.24 0.24 0.22 0.20 0.19 0.19 0.19 0.19 0.19 0.21 0.27 0.33 0.35 0.40 0.45 0.49 0.50 0.50
0.78 0.76 0.76 0.73 0.67 0.64 0.62 0.59 0.53 0.46 0.42 0.37 0.30 0.21 0.17 0.17 0.19 0.18 0.17 0.18 0.19 0.19 0.20 0.20 0.21 0.23 0.28 0.31 0.34 0.39 0.43 0.46 0.48
0.77 0.76 0.71 0.67 0.62 0.55 0.51 0.47 0.42 0.38 0.31 0.30 0.25 0.23 0.19 0.16 0.15 0.18 0.19 0.18 0.18 0.19 0.20 0.20 0.22 0.25 0.30 0.32 0.33 0.34 0.36 0.39 0.42
0.68 0.71 0.66 0.60 0.53 0.46 0.40 0.36 0.33 0.30 0.26 0.23 0.22 0.21 0.21 0.21 0.18 0.16 0.18 0.20 0.19 0.20 0.20 0.21 0.23 0.25 0.27 0.29 0.29 0.30 0.32 0.35 0.37
Wind_Speed
21 20 17 20 22 20 20 19 19 17 17 16 16 15 15 13 13 12 12 13 13 13 12 10 9 8 8 8 9 9 8 9 9
20 20 20 18 19 18 19 20 19 17 17 16 16 15 14 13 13 12 11 12 12 12 11 10 9 9 9 8 8 8 8 8 8
20 19 19 21 19 19 20 19 18 17 17 16 15 15 14 13 12 12 11 12 12 12 11 10 9 9 8 8 8 8 7 7 7
19 18 19 20 20 19 20 20 18 17 17 16 15 15 13 13 12 12 12 12 11 11 10 10 9 8 8 7 7 7 7 6 6
18 19 19 19 20 20 21 20 19 18 17 16 15 14 13 12 11 11 12 12 11 11 10 10 9 8 8 7 7 7 6 6 5
19 19 19 19 19 19 21 21 20 19 18 17 16 14 13 12 11 11 12 12 12 11 11 10 10 9 8 7 7 6 6 5 5
20 20 21 20 20 20 19 22 21 20 18 17 15 14 13 12 11 12 12 12 13 12 11 11 10 9 9 8 7 7 6 6 5
22 22 22 21 21 21 20 20 20 20 19 17 16 15 14 13 12 13 14 13 13 13 12 11 11 9 8 8 7 6 5 4 3
24 23 23 23 22 22 22 21 20 19 18 18 17 16 15 15 14 14 15 14 13 12 11 11 10 9 9 8 7 6 5 5 4
25 26 25 24 24 24 24 23 22 21 20 19 18 17 16 16 16 15 16 15 14 13 12 12 11 10 10 10 9 8 8 7 6
27 27 27 26 25 26 26 25 24 22 21 20 19 18 18 17 17 17 16 16 16 15 15 14 14 13 13 12 11 11 10 10 9
29 28 28 27 27 27 26 26 25 23 21 21 19 18 18 18 18 20 19 17 16 16 16 15 14 14 14 14 13 13 13 12 12
31 30 30 29 29 28 28 25 25 24 23 21 20 19 19 18 18 17 17 17 16 15 16 16 16 16 16 15 15 15 14 14 14
33 32 31 32 31 31 31 31 28 25 24 23 24 23 21 21 21 21 20 20 19 19 17 17 17 16 15 14 13 13 13 12 12
34 34 33 32 33 34 31 28 28 27 26 25 24 25 24 23 23 23 22 21 21 20 19 18 17 16 15 15 14 14 13 13 12
36 35 35 35 35 35 35 35 31 30 28 27 25 24 24 24 24 24 23 22 22 21 21 20 20 18 17 17 16 15 15 14 14
37 36 36 36 36 36 36 36 33 32 31 29 27 27 27 26 26 25 25 24 24 23 22 22 22 21 20 19 18 18 17 17 17
38 38 37 37 37 37 38 37 36 34 33 33 29 29 29 28 28 27 27 26 26 25 25 24 24 23 23 22 21 21 21 20 20
40 39 38 38 38 38 38 38 37 36 35 34 32 31 29 30 30 30 29 29 28 28 27 27 26 26 25 25 25 24 24 24 25
42 40 41 40 39 39 39 39 38 38 37 36 34 32 31 31 31 32 32 32 31 30 30 29 29 29 28 28 28 27 28 28 28
Wind_Direction
178 173 174 175 173 172 171 167 164 163 161 159 158 157 156 156 154 153 152 156 155 153 152 151 147 139 131 128 127 127 120 118 110
184 186 187 180 175 172 172 169 167 166 164 162 161 161 161 159 158 158 157 158 160 157 156 153 152 147 138 133 135 133 126 122 116
183 185 185 186 182 176 174 171 170 169 168 168 166 166 166 166 164 163 161 161 161 160 160 158 154 153 149 146 138 137 133 125 121
183 182 184 182 184 181 179 177 175 174 174 173 172 171 171 171 170 170 171 166 167 168 167 162 160 159 157 151 147 147 147 137 131
187 187 185 186 189 189 188 186 183 180 178 176 175 175 176 178 180 182 182 182 178 176 175 171 166 164 163 158 155 153 154 155 145
196 193 187 185 183 182 188 190 188 186 183 183 183 185 187 188 188 188 186 186 185 179 175 173 169 166 164 162 159 163 162 164 166
199 196 194 190 188 188 188 188 187 188 189 190 192 192 191 192 189 185 180 172 169 168 168 169 169 166 160 151 145 141 142 147 147
204 203 203 200 199 199 198 197 196 197 200 201 201 201 200 197 193 187 183 176 171 173 172 172 167 166 167 165 162 162 160 165 168
210 208 207 208 210 207 206 205 201 200 202 203 204 205 204 200 196 194 189 186 187 187 190 194 194 195 197 203 210 216 217 214 211
214 212 215 215 214 212 210 209 209 210 210 210 208 205 203 201 200 199 198 200 201 202 204 208 211 216 221 224 228 230 233 234 236
218 218 218 219 217 215 214 213 213 212 211 212 210 208 208 207 207 208 208 211 214 218 221 225 227 230 231 234 236 239 241 242 243
221 221 220 219 218 212 212 214 212 209 211 210 213 207 207 204 211 216 216 219 219 224 226 226 228 232 233 238 241 243 244 245 247
223 223 222 221 218 216 212 213 207 212 209 206 202 195 203 216 215 209 215 219 223 226 223 230 235 238 241 242 244 246 248 249 250
224 224 223 222 218 221 218 217 215 209 211 215 218 222 225 225 225 227 229 230 230 229 235 237 237 238 237 239 240 241 243 245 248
224 224 223 222 220 217 214 210 216 215 218 220 224 228 229 228 228 229 230 231 232 233 234 235 236 237 236 238 240 240 243 245 248
225 224 224 223 222 220 219 219 219 223 223 224 226 228 228 229 230 231 232 232 233 234 235 236 236 236 237 239 240 242 245 247 250
226 225 224 223 221 220 220 220 222 223 225 229 228 231 232 233 233 234 235 235 235 236 237 237 237 238 239 241 244 246 248 250 253
226 226 224 223 222 222 222 222 224 226 228 226 233 233 235 231 235 236 236 237 237 238 239 239 240 241 242 245 247 249 251 254 257
225 225 224 224 224 223 223 224 226 227 228 230 235 237 234 237 237 237 238 239 240 241 241 242 243 244 245 247 249 252 255 258 260
226 225 226 226 224 224 225 226 228 229 230 232 234 236 238 238 240 239 239 241 242 243 243 244 245 246 248 250 252 255 257 260 262